Terminal Aerodrome Forecast
Issued by NWS Billings, MT

Home | Current Version | Previous Version | Graphics & Text | Print | Product List | Glossary On
Versions: 1 2 3 4 5 6 7 8 9 10 11 12 13 14 15 16 17 18 19 20 21 22 23 24 25 26
000
FTUS45 KBYZ 300520
TAFMLS
TAF
KMLS 300520Z 3006/3106 32006KT P6SM SKC
     FM300900 25006KT P6SM FEW100
     FM302000 34008KT P6SM FEW100=

USA.gov is the U.S. government's official web portal to all federal, state and local government web resources and services.